Home   Weather   Weil am Rhein   Past weeks

Flag for Germany Past Weather in Weil am Rhein, Baden-Württemberg, Germany — Yesterday and Last 2 Weeks

Now
36 °F

Light snow. Overcast.


Feels Like: 32 °F
Forecast: 37 / 48 °F
Wind: 5 mph from Southwest

Location: Bale-Mulhouse

Current Time: Feb 28, 2017 at 4:20:29 am

Latest Report: Feb 28, 2017 at 4:00 am


Visibility: 4 mi

Pressure: 29.63 "Hg

Humidity: 93%

Dew Point: 34 °F

Location of Weil am RheinLocation

Past Weather in Weil am Rhein — Graph

°F

Weil am Rhein Temperature Yesterday

Maximum temperature yesterday: 61 °F (at 3:00 pm)
Minimum temperature yesterday: 33 °F (at 6:00 am)
Average temperature yesterday: 48 °F

High & Low Weather Summary for the Past Weeks

 TemperatureHumidityPressure
High68 °F (Feb 23, 3:00 pm)100% (Feb 18, 3:00 am)30.62 "Hg (Feb 18, 3:00 am)
Low28 °F (Feb 15, 4:00 am)26% (Feb 23, 2:00 pm)29.50 "Hg (Feb 27, 8:00 pm)
Average44 °F77%30.21 "Hg
* Reported Feb 13 3:00 am — Feb 28 3:00 am, Weil am Rhein, Weather by CustomWeather, © 2017

Note: Actual official high and low records may vary slightly from our data, if they occured in-between our weather recording intervals... More about our weather records

Advertising

Weil am Rhein Weather History for the Previous 24 Hours

Scroll right to see more
 ConditionsComfort  
Time TempWeatherWind HumidityBarometerVisibility
3:00 am
Tue, Feb 28
39 °FHeavy rain. Overcast.12 mph90%29.62 "Hg8 mi
2:00 am43 °FHeavy rain. Overcast.15 mph90%29.56 "Hg2 mi
1:00 am46 °FOvercast.7 mph83%29.50 "Hg37 mi
12:00 am47 °FOvercast.7 mph78%29.53 "Hg19 mi
11:00 pm
Mon, Feb 27
48 °FOvercast.18 mph74%29.57 "Hg19 mi
10:00 pm60 °FOvercast.16 mph38%29.50 "Hg12 mi
9:00 pm60 °FOvercast.18 mph38%29.50 "Hg31 mi
8:00 pm60 °FOvercast.18 mph37%29.50 "Hg31 mi
7:00 pm60 °FOvercast.12 mph37%29.54 "Hg31 mi
6:00 pm56 °FOvercast.3 mph49%29.57 "Hg31 mi
5:00 pm60 °FScattered clouds.3 mph44%29.58 "Hg31 mi
4:00 pm61 °FScattered clouds.2 mph43%29.61 "Hg31 mi
3:00 pm61 °FScattered clouds.1 mph42%29.63 "Hg31 mi
2:00 pm58 °FScattered clouds.3 mph46%29.67 "Hg31 mi
1:00 pm57 °FPassing clouds.2 mph48%29.74 "Hg31 mi
12:00 pm54 °FScattered clouds.3 mph51%29.78 "Hg31 mi
11:00 am49 °FScattered clouds.5 mph54%29.83 "Hg31 mi
10:00 am45 °FPassing clouds.7 mph64%29.87 "Hg31 mi
9:00 am40 °FScattered clouds.7 mph75%29.89 "Hg31 mi
8:00 am34 °FScattered clouds.7 mph83%29.92 "Hg31 mi
7:00 am33 °FPassing clouds.6 mph84%29.93 "Hg12 mi
6:00 am33 °FPassing clouds.6 mph84%29.95 "Hg12 mi
5:00 am33 °FPassing clouds.7 mph84%29.97 "Hg12 mi
4:00 am34 °FChilly.5 mph85%29.98 "Hg16 mi
Weather by CustomWeather, © 2017

See weather overviewHow to use our weather pages